START_TIME,STEP,MOV.,H8,t_acc.,H43,t_acc.,M25,t_acc.,H9,t_acc.
1979-07-03 09:00:30.330 ,0,0,0.,12.0,0.,12.0,0.,12.0,0.,12.0
1979-07-03 09:00:42.330 ,0,0,0.,12.0,0.,12.0,0.,12.0,0.,12.0
1979-07-03 09:00:54.330 ,0,0,0.,12.0,0.,12.0,0.,12.0,0.,12.0
1979-07-03 09:01:06.330 ,0,0,0.,12.0,0.,12.0,0.,12.0,0.,12.0
1979-07-03 09:01:18.330 ,0,0,0.,12.0,0.,12.0,0.,12.0,0.,12.0
1979-07-03 09:01:30.330 ,0,0,0.,12.0,0.,12.0,0.,12.0,0.,12.0
1979-07-03 09:01:42.330 ,1,0,0.,12.0,0.,12.0,0.,12.0,0.,12.0
1979-07-03 09:01:54.330 ,1,0,0.,12.0,0.,12.0,0.,12.0,0.,12.0
1979-07-03 09:02:06.330 ,1,0,0.,12.0,0.,12.0,0.,12.0,0.,12.0
1979-07-03 09:02:18.330 ,1,0,0.,12.0,0.,12.0,0.,12.0,0.,12.0
1979-07-03 09:02:30.330 ,2,0,0.,12.0,0.,12.0,0.,12.0,0.,12.0
1979-07-03 09:02:42.330 ,2,0,0.,12.0,0.,12.0,0.,12.0,0.,12.0
1979-07-03 09:02:54.330 ,2,0,0.,12.0,0.,12.0,0.,12.0,0.,12.0
1979-07-03 09:03:06.330 ,2,0,0.,12.0,0.,12.0,0.,12.0,0.,12.0
1979-07-03 09:03:18.330 ,3,0,0.,12.0,0.,12.0,0.,12.0,0.,12.0
1979-07-03 09:03:30.330 ,3,0,0.,12.0,0.,12.0,0.,12.0,0.,12.0
1979-07-03 09:03:42.330 ,3,0,0.,12.0,0.,12.0,0.,12.0,0.,12.0
1979-07-03 09:03:54.330 ,3,0,0.,12.0,0.,12.0,0.,12.0,0.,12.0
1979-07-03 09:04:06.330 ,4,0,0.,12.0,0.,12.0,0.,12.0,0.,12.0
1979-07-03 09:04:18.330 ,4,0,0.,12.0,0.,12.0,0.,12.0,0.,12.0
1979-07-03 09:04:30.330 ,4,0,0.,12.0,0.,12.0,0.,12.0,0.,12.0
1979-07-03 09:04:42.330 ,4,0,0.,12.0,0.,12.0,0.,12.0,0.,12.0
1979-07-03 09:04:54.330 ,5,0,0.,12.0,0.,12.0,0.,12.0,0.,12.0
1979-07-03 09:05:06.330 ,5,0,0.,12.0,0.,12.0,0.,12.0,0.,12.0
1979-07-03 09:05:18.330 ,5,0,0.,12.0,0.,12.0,0.,12.0,0.,12.0
1979-07-03 09:05:30.330 ,5,0,0.,12.0,0.,12.0,0.,12.0,0.,12.0
1979-07-03 09:05:42.330 ,6,0,0.,12.0,0.,12.0,0.,12.0,0.,12.0
1979-07-03 09:05:54.330 ,6,0,0.,12.0,0.,12.0,0.,12.0,0.,12.0
1979-07-03 09:06:06.330 ,6,0,0.,12.0,0.,12.0,0.,12.0,0.,12.0
1979-07-03 09:06:18.330 ,6,0,0.,12.0,0.,12.0,0.,12.0,0.,12.0
1979-07-03 09:06:30.330 ,7,0,0.,12.0,0.,12.0,0.,12.0,0.,12.0
1979-07-03 09:06:42.330 ,7,0,0.,12.0,0.,12.0,0.,12.0,0.,12.0
1979-07-03 09:06:54.330 ,7,0,0.,12.0,0.,12.0,0.,12.0,0.,12.0
1979-07-03 09:07:06.330 ,7,0,0.,12.0,0.,12.0,0.,12.0,0.,12.0
1979-07-03 09:07:18.330 ,7,0,0.,12.0,0.,12.0,0.,12.0,0.,12.0
1979-07-03 09:07:30.330 ,7,0,0.,12.0,0.,12.0,0.,12.0,0.,12.0
1979-07-03 09:07:42.330 ,7,0,0.,12.0,0.,12.0,0.,12.0,0.,12.0
1979-07-03 09:07:54.330 ,7,0,0.,12.0,0.,12.0,0.,12.0,0.,12.0
1979-07-03 09:08:06.330 ,6,0,0.,12.0,0.,12.0,0.,12.0,0.,12.0
1979-07-03 09:08:18.330 ,6,0,0.,12.0,0.,12.0,0.,12.0,0.,12.0
1979-07-03 09:08:30.330 ,6,0,0.,12.0,0.,12.0,0.,12.0,0.,12.0
1979-07-03 09:08:42.330 ,6,0,0.,12.0,0.,12.0,0.,12.0,0.,12.0
1979-07-03 09:08:54.330 ,5,0,0.,12.0,0.,12.0,0.,12.0,0.,12.0
1979-07-03 09:09:06.330 ,5,0,0.,12.0,0.,12.0,0.,12.0,0.,12.0
1979-07-03 09:09:18.330 ,5,0,0.,12.0,0.,12.0,0.,12.0,0.,12.0
1979-07-03 09:09:30.330 ,5,0,0.,12.0,0.,12.0,0.,12.0,0.,12.0
1979-07-03 09:09:42.330 ,4,0,0.,12.0,0.,12.0,0.,12.0,0.,12.0
1979-07-03 09:09:54.330 ,4,0,0.,12.0,0.,12.0,0.,12.0,0.,12.0
1979-07-03 09:10:06.330 ,4,0,0.,12.0,0.,12.0,0.,12.0,0.,12.0
1979-07-03 09:10:18.330 ,4,0,0.,12.0,0.,12.0,0.,12.0,0.,12.0
1979-07-03 09:10:30.330 ,3,0,0.,12.0,0.,12.0,0.,12.0,0.,12.0
1979-07-03 09:10:42.330 ,3,0,0.,12.0,0.,12.0,0.,12.0,0.,12.0
1979-07-03 09:10:54.330 ,3,0,0.,12.0,0.,12.0,0.,12.0,0.,12.0
1979-07-03 09:11:06.330 ,3,0,0.,12.0,0.,12.0,0.,12.0,0.,12.0
1979-07-03 09:11:18.330 ,2,0,0.,12.0,0.,12.0,0.,12.0,0.,12.0
1979-07-03 09:11:30.330 ,2,0,0.,12.0,0.,12.0,0.,12.0,0.,12.0
1979-07-03 09:11:42.330 ,2,0,0.,12.0,0.,12.0,0.,12.0,0.,12.0
1979-07-03 09:11:54.330 ,2,0,0.,12.0,0.,12.0,0.,12.0,0.,12.0
1979-07-03 09:12:06.330 ,1,0,0.,12.0,0.,12.0,0.,12.0,0.,12.0
1979-07-03 09:12:18.330 ,1,0,0.,12.0,0.,12.0,0.,12.0,0.,12.0
1979-07-03 09:12:30.330 ,1,0,0.,12.0,0.,12.0,0.,12.0,0.,12.0
1979-07-03 09:12:42.330 ,1,0,0.,12.0,0.,12.0,0.,12.0,0.,12.0
1979-07-03 09:12:54.330 ,0,0,0.,12.0,0.,12.0,0.,12.0,0.,12.0
1979-07-03 09:13:06.330 ,0,0,0.,12.0,0.,12.0,0.,12.0,0.,12.0
1979-07-03 09:13:18.330 ,0,0,0.,12.0,0.,12.0,0.,12.0,0.,12.0
1979-07-03 09:13:30.330 ,0,0,0.,12.0,0.,12.0,0.,12.0,0.,12.0
1979-07-03 09:13:42.330 ,0,0,0.,12.0,0.,12.0,0.,12.0,0.,12.0
1979-07-03 09:13:54.330 ,0,0,0.,12.0,0.,12.0,0.,12.0,0.,12.0
1979-07-03 09:14:06.330 ,0,0,0.,12.0,0.,12.0,0.,12.0,0.,12.0
1979-07-03 09:14:18.330 ,0,0,0.,12.0,0.,12.0,0.,12.0,0.,12.0
1979-07-03 09:14:30.330 ,1,0,0.,12.0,0.,12.0,0.,12.0,0.,12.0
1979-07-03 09:14:42.330 ,1,0,0.,12.0,0.,12.0,0.,12.0,0.,12.0
1979-07-03 09:14:54.330 ,1,0,0.,12.0,0.,12.0,0.,12.0,0.,12.0
1979-07-03 09:15:06.330 ,1,0,0.,12.0,0.,12.0,0.,12.0,0.,12.0
1979-07-03 09:15:18.330 ,2,0,0.,12.0,0.,12.0,0.,12.0,0.,12.0
1979-07-03 09:15:30.330 ,2,0,0.,12.0,0.,12.0,0.,12.0,0.,12.0
1979-07-03 09:15:42.330 ,2,0,0.,12.0,0.,12.0,0.,12.0,0.,12.0
1979-07-03 09:15:54.330 ,2,0,0.,12.0,0.,12.0,0.,12.0,0.,12.0
1979-07-03 09:16:06.330 ,3,0,,0,,0,,0,,0
1979-07-03 09:16:18.330 ,3,0,0.,12.0,0.,12.0,0.,12.0,0.,12.0
1979-07-03 09:16:30.330 ,0,0,0.,12.0,0.,12.0,0.,12.0,0.,12.0
1979-07-03 09:16:42.330 ,0,0,0.,12.0,0.,12.0,0.,12.0,0.,12.0
1979-07-03 09:16:54.330 ,4,0,0.,12.0,0.,12.0,0.,12.0,0.,12.0
1979-07-03 09:17:06.330 ,4,0,0.,12.0,0.,12.0,0.,12.0,0.,12.0
1979-07-03 09:17:18.330 ,4,0,0.,12.0,0.,12.0,0.,12.0,0.,12.0
1979-07-03 09:17:30.330 ,4,0,0.,12.0,0.,12.0,0.,12.0,0.,12.0
1979-07-03 09:17:42.330 ,5,0,0.,12.0,0.,12.0,0.,12.0,0.,12.0
1979-07-03 09:17:54.330 ,5,0,0.,12.0,0.,12.0,0.,12.0,0.,12.0
1979-07-03 09:18:06.330 ,5,0,0.,12.0,0.,12.0,0.,12.0,0.,12.0
1979-07-03 09:18:18.330 ,5,0,0.,12.0,0.,12.0,0.,12.0,0.,12.0
1979-07-03 09:18:30.330 ,6,0,0.,12.0,0.,12.0,0.,12.0,0.,12.0
1979-07-03 09:18:42.330 ,6,0,0.,12.0,0.,12.0,0.,12.0,0.,12.0
1979-07-03 09:18:54.330 ,6,0,0.,12.0,0.,12.0,0.,12.0,0.,12.0
1979-07-03 09:19:06.330 ,6,0,0.,12.0,0.,12.0,0.,12.0,0.,12.0
1979-07-03 09:19:18.330 ,7,0,0.,12.0,0.,12.0,0.,12.0,0.,12.0
1979-07-03 09:19:30.330 ,7,0,0.,12.0,0.,12.0,0.,12.0,0.,12.0
1979-07-03 09:19:42.330 ,7,0,0.,12.0,0.,12.0,0.,12.0,0.,12.0
1979-07-03 09:19:54.330 ,7,0,0.,12.0,0.,12.0,0.,12.0,0.,12.0
1979-07-03 09:20:06.330 ,7,0,0.,12.0,0.,12.0,0.,12.0,0.,12.0
1979-07-03 09:20:18.330 ,7,0,0.,12.0,0.,12.0,0.,12.0,0.,12.0
1979-07-03 09:20:30.330 ,7,0,0.,12.0,0.,12.0,0.,12.0,0.,12.0
1979-07-03 09:20:42.330 ,7,0,0.,12.0,0.,12.0,0.,12.0,0.,12.0
1979-07-03 09:20:54.330 ,6,0,0.,12.0,0.,12.0,0.,12.0,0.,12.0
1979-07-03 09:21:06.330 ,6,0,0.,12.0,0.,12.0,0.,12.0,0.,12.0
1979-07-03 09:21:18.330 ,6,0,0.,12.0,0.,12.0,0.,12.0,0.,12.0
1979-07-03 09:21:30.330 ,6,0,0.,12.0,0.,12.0,0.,12.0,0.,12.0
1979-07-03 09:21:42.330 ,5,0,0.,12.0,0.,12.0,0.,12.0,0.,12.0
1979-07-03 09:21:54.330 ,5,0,0.,12.0,0.,12.0,0.,12.0,0.,12.0
1979-07-03 09:22:06.330 ,5,0,0.,12.0,0.,12.0,0.,12.0,0.,12.0
1979-07-03 09:22:18.330 ,5,0,0.,12.0,0.,12.0,0.,12.0,0.,12.0
1979-07-03 09:22:30.330 ,4,0,0.,12.0,0.,12.0,0.,12.0,0.,12.0
1979-07-03 09:22:42.330 ,4,0,0.,12.0,0.,12.0,0.,12.0,0.,12.0
1979-07-03 09:22:54.330 ,4,0,0.,12.0,0.,12.0,0.,12.0,0.,12.0
1979-07-03 09:23:06.330 ,4,0,0.,12.0,0.,12.0,0.,12.0,0.,12.0
1979-07-03 09:23:18.330 ,3,0,0.,12.0,0.,12.0,0.,12.0,0.,12.0
1979-07-03 09:23:30.330 ,3,0,0.,12.0,0.,12.0,0.,12.0,0.,12.0
1979-07-03 09:23:42.330 ,3,0,0.,12.0,0.,12.0,0.,12.0,0.,12.0
1979-07-03 09:23:54.330 ,3,0,0.,12.0,0.,12.0,0.,12.0,0.,12.0
1979-07-03 09:24:06.330 ,2,0,0.,12.0,0.,12.0,0.,12.0,0.,12.0
1979-07-03 09:24:18.330 ,2,0,0.,12.0,0.,12.0,0.,12.0,0.,12.0
1979-07-03 09:24:30.330 ,2,0,0.,12.0,0.,12.0,0.,12.0,0.,12.0
1979-07-03 09:24:42.330 ,2,0,0.,12.0,0.,12.0,0.,12.0,0.,12.0
1979-07-03 09:24:54.330 ,1,0,0.,12.0,0.,12.0,0.,12.0,0.,12.0
1979-07-03 09:25:06.330 ,1,0,0.,12.0,0.,12.0,0.,12.0,0.,12.0
1979-07-03 09:25:18.330 ,1,0,0.,12.0,0.,12.0,0.,12.0,0.,12.0
1979-07-03 09:25:30.330 ,1,0,0.,12.0,0.,12.0,0.,12.0,0.,12.0
1979-07-03 09:25:42.330 ,0,0,0.,12.0,0.,12.0,0.,12.0,0.,12.0
1979-07-03 09:25:54.330 ,0,0,0.,12.0,0.,12.0,0.,12.0,0.,12.0
1979-07-03 09:26:06.330 ,0,0,0.,12.0,0.,12.0,0.,12.0,0.,12.0
1979-07-03 09:26:18.330 ,0,0,0.,12.0,0.,12.0,0.,12.0,0.,12.0
1979-07-03 09:26:30.330 ,0,0,0.,12.0,0.,12.0,0.,12.0,0.,12.0
1979-07-03 09:26:42.330 ,0,0,0.,12.0,0.,12.0,0.,12.0,0.,12.0
1979-07-03 09:26:54.330 ,0,0,0.,12.0,0.,12.0,0.,12.0,0.,12.0
1979-07-03 09:27:06.330 ,0,0,0.,12.0,0.,12.0,0.,12.0,0.,12.0
1979-07-03 09:27:18.330 ,1,0,0.,12.0,0.,12.0,0.,12.0,0.,12.0
1979-07-03 09:27:30.330 ,1,0,0.,12.0,0.,12.0,0.,12.0,0.,12.0
1979-07-03 09:27:42.330 ,1,0,0.,12.0,0.,12.0,0.,12.0,0.,12.0
1979-07-03 09:27:54.330 ,1,0,0.,12.0,0.,12.0,0.,12.0,0.,12.0
1979-07-03 09:28:06.330 ,2,0,0.,12.0,0.,12.0,0.,12.0,0.,12.0
1979-07-03 09:28:18.330 ,2,0,0.,12.0,0.,12.0,0.,12.0,0.,12.0
1979-07-03 09:28:30.330 ,2,0,0.,12.0,0.,12.0,0.,12.0,0.,12.0
1979-07-03 09:28:42.330 ,2,0,0.,12.0,0.,12.0,0.,12.0,0.,12.0
1979-07-03 09:28:54.330 ,3,0,0.,12.0,0.,12.0,0.,12.0,0.,12.0
1979-07-03 09:29:06.330 ,3,0,0.,12.0,0.,12.0,0.,12.0,0.,12.0
1979-07-03 09:29:18.330 ,3,0,0.,12.0,0.,12.0,0.,12.0,0.,12.0
1979-07-03 09:29:30.330 ,3,0,0.,12.0,0.,12.0,0.,12.0,0.,12.0
1979-07-03 09:29:42.330 ,4,0,0.,12.0,0.,12.0,0.,12.0,0.,12.0
1979-07-03 09:29:54.330 ,4,0,0.,12.0,0.,12.0,0.,12.0,0.,12.0
1979-07-03 09:30:06.330 ,4,0,0.,12.0,0.,12.0,0.,12.0,0.,12.0
1979-07-03 09:30:18.330 ,4,0,0.,12.0,0.,12.0,0.,12.0,0.,12.0
1979-07-03 09:30:30.330 ,5,0,0.,12.0,0.,12.0,0.,12.0,0.,12.0
1979-07-03 09:30:42.330 ,5,0,0.,12.0,0.,12.0,0.,12.0,0.,12.0
1979-07-03 09:30:54.330 ,5,0,0.,12.0,0.,12.0,0.,12.0,0.,12.0
1979-07-03 09:31:06.330 ,5,0,0.,12.0,0.,12.0,0.,12.0,0.,12.0
1979-07-03 09:31:18.330 ,6,0,0.,12.0,0.,12.0,0.,12.0,0.,12.0
1979-07-03 09:31:30.330 ,6,0,0.,12.0,0.,12.0,0.,12.0,0.,12.0
1979-07-03 09:31:42.330 ,6,0,0.,12.0,0.,12.0,0.,12.0,0.,12.0
1979-07-03 09:31:54.330 ,6,0,0.,12.0,0.,12.0,0.,12.0,0.,12.0
1979-07-03 09:32:06.330 ,7,0,0.,12.0,0.,12.0,0.,12.0,0.,12.0
1979-07-03 09:32:18.330 ,7,0,0.,12.0,0.,12.0,0.,12.0,0.,12.0
1979-07-03 09:32:30.330 ,7,0,0.,12.0,0.,12.0,0.,12.0,0.,12.0
1979-07-03 09:32:42.330 ,7,0,0.,12.0,0.,12.0,0.,12.0,0.,12.0
1979-07-03 09:32:54.330 ,7,0,0.,12.0,0.,12.0,0.,12.0,0.,12.0
1979-07-03 09:33:06.330 ,7,0,0.,12.0,0.,12.0,0.,12.0,0.,12.0
1979-07-03 09:33:18.330 ,7,0,0.,12.0,0.,12.0,0.,12.0,0.,12.0
1979-07-03 09:33:30.330 ,7,0,0.,12.0,0.,12.0,0.,12.0,0.,12.0
1979-07-03 09:33:42.330 ,6,0,0.,12.0,0.,12.0,0.,12.0,0.,12.0
1979-07-03 09:33:54.330 ,6,0,0.,12.0,0.,12.0,0.,12.0,0.,12.0
1979-07-03 09:34:06.330 ,6,0,0.,12.0,0.,12.0,0.,12.0,0.,12.0
1979-07-03 09:34:18.330 ,6,0,0.,12.0,0.,12.0,0.,12.0,0.,12.0
1979-07-03 09:34:30.330 ,5,0,0.,12.0,0.,12.0,0.,12.0,0.,12.0
1979-07-03 09:34:42.330 ,5,0,0.,12.0,0.,12.0,0.,12.0,0.,12.0
1979-07-03 09:34:54.330 ,5,0,0.,12.0,0.,12.0,0.,12.0,0.,12.0
1979-07-03 09:35:06.330 ,5,0,0.,12.0,0.,12.0,0.,12.0,0.,12.0
1979-07-03 09:35:18.330 ,4,0,0.,12.0,0.,12.0,0.,12.0,0.,12.0
1979-07-03 09:35:30.330 ,4,0,0.,12.0,0.,12.0,0.,12.0,0.,12.0
1979-07-03 09:35:42.330 ,4,0,0.,12.0,0.,12.0,0.,12.0,0.,12.0
1979-07-03 09:35:54.330 ,4,0,0.,12.0,0.,12.0,0.,12.0,0.,12.0
1979-07-03 09:36:06.330 ,3,0,0.,12.0,0.,12.0,0.,12.0,0.,12.0
1979-07-03 09:36:18.330 ,3,0,0.,12.0,0.,12.0,0.,12.0,0.,12.0
1979-07-03 09:36:30.330 ,3,0,0.,12.0,0.,12.0,0.,12.0,0.,12.0
1979-07-03 09:36:42.330 ,3,0,0.,12.0,0.,12.0,0.,12.0,0.,12.0
1979-07-03 09:36:54.330 ,2,0,0.,12.0,0.,12.0,0.,12.0,0.,12.0
1979-07-03 09:37:06.330 ,2,0,0.,12.0,0.,12.0,0.,12.0,0.,12.0
1979-07-03 09:37:18.330 ,2,0,0.,12.0,0.,12.0,0.,12.0,0.,12.0
1979-07-03 09:37:30.330 ,2,0,0.,12.0,0.,12.0,0.,12.0,0.,12.0
1979-07-03 09:37:42.330 ,1,0,0.,12.0,0.,12.0,0.,12.0,0.,12.0
1979-07-03 09:37:54.330 ,1,0,0.,12.0,0.,12.0,0.,12.0,0.,12.0
1979-07-03 09:38:06.330 ,1,0,0.,12.0,0.,12.0,0.,12.0,0.,12.0
1979-07-03 09:38:18.330 ,1,0,0.,12.0,0.,12.0,0.,12.0,0.,12.0
1979-07-03 09:38:30.330 ,0,0,0.,12.0,0.,12.0,0.,12.0,0.,12.0
1979-07-03 09:38:42.330 ,0,0,0.,12.0,0.,12.0,0.,12.0,0.,12.0
1979-07-03 09:38:54.330 ,0,0,0.,12.0,0.,12.0,0.,12.0,0.,12.0
1979-07-03 09:39:06.330 ,0,0,0.,12.0,0.,12.0,0.,12.0,0.,12.0
1979-07-03 09:39:18.330 ,0,0,0.,12.0,0.,12.0,0.,12.0,0.,12.0
1979-07-03 09:39:30.330 ,0,0,0.,12.0,0.,12.0,0.,12.0,0.,12.0
1979-07-03 09:39:42.330 ,0,0,0.,12.0,0.,12.0,0.,12.0,0.,12.0
1979-07-03 09:39:54.330 ,0,0,0.,12.0,0.,12.0,0.,12.0,0.,12.0
1979-07-03 09:40:06.330 ,1,0,0.,12.0,0.,12.0,0.,12.0,0.,12.0
1979-07-03 09:40:18.330 ,1,0,0.,12.0,0.,12.0,0.,12.0,0.,12.0
1979-07-03 09:40:30.330 ,1,0,0.,12.0,0.,12.0,0.,12.0,0.,12.0
1979-07-03 09:40:42.330 ,1,0,0.,12.0,0.,12.0,0.,12.0,0.,12.0
1979-07-03 09:40:54.330 ,2,0,0.,12.0,0.,12.0,0.,12.0,0.,12.0
1979-07-03 09:41:06.330 ,2,0,0.,12.0,0.,12.0,0.,12.0,0.,12.0
1979-07-03 09:41:18.330 ,2,0,0.,12.0,0.,12.0,0.,12.0,0.,12.0
1979-07-03 09:41:30.330 ,2,0,0.,12.0,0.,12.0,0.,12.0,0.,12.0
1979-07-03 09:41:42.330 ,3,0,0.,12.0,0.,12.0,0.,12.0,0.,12.0
1979-07-03 09:41:54.330 ,3,0,0.,12.0,0.,12.0,0.,12.0,0.,12.0
1979-07-03 09:42:06.330 ,3,0,0.,12.0,0.,12.0,0.,12.0,0.,12.0
1979-07-03 09:42:18.330 ,3,0,0.,12.0,0.,12.0,0.,12.0,0.,12.0
1979-07-03 09:42:30.330 ,4,0,0.,12.0,0.,12.0,0.,12.0,0.,12.0
1979-07-03 09:42:42.330 ,4,0,0.,12.0,0.,12.0,0.,12.0,0.,12.0
1979-07-03 09:42:54.330 ,4,0,0.,12.0,0.,12.0,0.,12.0,0.,12.0
1979-07-03 09:43:06.330 ,4,0,0.,12.0,0.,12.0,0.,12.0,0.,12.0
1979-07-03 09:43:18.330 ,5,0,0.,12.0,0.,12.0,0.,12.0,0.,12.0
1979-07-03 09:43:30.330 ,5,0,0.,12.0,0.,12.0,0.,12.0,0.,12.0
1979-07-03 09:43:42.330 ,5,0,0.,12.0,0.,12.0,0.,12.0,0.,12.0
1979-07-03 09:43:54.330 ,5,0,0.,12.0,0.,12.0,0.,12.0,0.,12.0
1979-07-03 09:44:06.330 ,6,0,0.,12.0,0.,12.0,0.,12.0,0.,12.0
1979-07-03 09:44:18.330 ,6,0,0.,12.0,0.,12.0,0.,12.0,0.,12.0
1979-07-03 09:44:30.330 ,6,0,0.,12.0,0.,12.0,0.,12.0,0.,12.0
1979-07-03 09:44:42.330 ,6,0,0.,12.0,0.,12.0,0.,12.0,0.,12.0
1979-07-03 09:44:54.330 ,7,0,0.,12.0,0.,12.0,0.,12.0,0.,12.0
1979-07-03 09:45:06.330 ,7,0,0.,12.0,0.,12.0,0.,12.0,0.,12.0
1979-07-03 09:45:18.330 ,7,0,0.,12.0,0.,12.0,0.,12.0,0.,12.0
1979-07-03 09:45:30.330 ,7,0,0.,12.0,0.,12.0,0.,12.0,0.,12.0
1979-07-03 09:45:42.330 ,7,0,0.,12.0,0.,12.0,0.,12.0,0.,12.0
1979-07-03 09:45:54.330 ,7,0,0.,12.0,0.,12.0,0.,12.0,0.,12.0
1979-07-03 09:46:06.330 ,7,0,0.,12.0,0.,12.0,0.,12.0,0.,12.0
1979-07-03 09:46:18.330 ,7,0,0.,12.0,0.,12.0,0.,12.0,0.,12.0
1979-07-03 09:46:30.330 ,6,0,0.,12.0,0.,12.0,0.,12.0,0.,12.0
1979-07-03 09:46:42.330 ,6,0,0.,12.0,0.,12.0,0.,12.0,0.,12.0
1979-07-03 09:46:54.330 ,6,0,0.,12.0,0.,12.0,0.,12.0,0.,12.0
1979-07-03 09:47:06.330 ,6,0,0.,12.0,0.,12.0,0.,12.0,0.,12.0
1979-07-03 09:47:18.330 ,5,0,0.,12.0,0.,12.0,1.,12.0,0.,12.0
1979-07-03 09:47:30.330 ,5,0,0.,12.0,0.,12.0,0.,12.0,0.,12.0
1979-07-03 09:47:42.330 ,5,0,0.,12.0,0.,12.0,0.,12.0,0.,12.0
1979-07-03 09:47:54.330 ,5,0,0.,12.0,0.,12.0,0.,12.0,0.,12.0
1979-07-03 09:48:06.330 ,4,0,0.,12.0,0.,12.0,0.,12.0,0.,12.0
1979-07-03 09:48:18.330 ,4,0,0.,12.0,0.,12.0,0.,12.0,0.,12.0
1979-07-03 09:48:30.330 ,4,0,0.,12.0,0.,12.0,0.,12.0,0.,12.0
1979-07-03 09:48:42.330 ,4,0,0.,12.0,0.,12.0,0.,12.0,0.,12.0
1979-07-03 09:48:54.330 ,3,0,0.,12.0,0.,12.0,0.,12.0,0.,12.0
1979-07-03 09:49:06.330 ,3,0,0.,12.0,0.,12.0,0.,12.0,0.,12.0
1979-07-03 09:49:18.330 ,3,0,0.,12.0,0.,12.0,0.,12.0,0.,12.0
1979-07-03 09:49:30.330 ,3,0,0.,12.0,0.,12.0,0.,12.0,0.,12.0
1979-07-03 09:49:42.330 ,2,0,0.,12.0,0.,12.0,0.,12.0,0.,12.0
1979-07-03 09:49:54.330 ,2,0,0.,12.0,0.,12.0,0.,12.0,0.,12.0
1979-07-03 09:50:06.330 ,2,0,0.,12.0,0.,12.0,0.,12.0,0.,12.0
1979-07-03 09:50:18.330 ,2,0,0.,12.0,0.,12.0,0.,12.0,0.,12.0
1979-07-03 09:50:30.320 ,1,0,0.,12.0,0.,12.0,0.,12.0,0.,12.0
1979-07-03 09:50:42.320 ,1,0,0.,12.0,0.,12.0,0.,12.0,0.,12.0
1979-07-03 09:50:54.320 ,1,0,0.,12.0,0.,12.0,0.,12.0,0.,12.0
1979-07-03 09:51:06.320 ,1,0,0.,12.0,0.,12.0,0.,12.0,0.,12.0
1979-07-03 09:51:18.320 ,0,0,0.,12.0,0.,12.0,0.,12.0,0.,12.0
1979-07-03 09:51:30.320 ,0,0,0.,12.0,0.,12.0,0.,12.0,0.,12.0
1979-07-03 09:51:42.320 ,0,0,0.,12.0,0.,12.0,0.,12.0,0.,12.0
1979-07-03 09:51:54.320 ,0,0,0.,12.0,0.,12.0,0.,12.0,0.,12.0
1979-07-03 09:52:06.320 ,7,0,0.,12.0,0.,12.0,0.,12.0,0.,12.0
1979-07-03 09:52:18.320 ,7,0,0.,12.0,0.,12.0,0.,12.0,0.,12.0
1979-07-03 09:52:30.320 ,7,0,0.,12.0,0.,12.0,0.,12.0,0.,12.0
1979-07-03 09:52:42.320 ,7,0,0.,12.0,0.,12.0,0.,12.0,0.,12.0
1979-07-03 09:52:54.320 ,7,0,0.,12.0,0.,12.0,0.,12.0,0.,12.0
1979-07-03 09:53:06.320 ,7,0,0.,12.0,0.,12.0,0.,12.0,0.,12.0
1979-07-03 09:53:18.320 ,7,0,0.,12.0,0.,12.0,0.,12.0,0.,12.0
1979-07-03 09:53:30.320 ,7,0,0.,12.0,0.,12.0,0.,12.0,0.,12.0
1979-07-03 09:53:42.320 ,7,0,0.,12.0,0.,12.0,0.,12.0,0.,12.0
1979-07-03 09:53:54.320 ,7,0,0.,12.0,0.,12.0,0.,12.0,0.,12.0
1979-07-03 09:54:06.320 ,7,0,0.,12.0,0.,12.0,0.,12.0,0.,12.0
1979-07-03 09:54:18.320 ,7,0,0.,12.0,0.,12.0,0.,12.0,0.,12.0
1979-07-03 09:54:30.320 ,7,0,0.,12.0,0.,12.0,0.,12.0,0.,12.0
1979-07-03 09:54:42.320 ,7,0,0.,12.0,0.,12.0,0.,12.0,0.,12.0
1979-07-03 09:54:54.320 ,7,0,0.,12.0,0.,12.0,0.,12.0,0.,12.0
1979-07-03 09:55:06.320 ,7,0,0.,12.0,0.,12.0,0.,12.0,0.,12.0
1979-07-03 09:55:18.320 ,3,1,0.,12.0,0.,12.0,0.,12.0,0.,12.0
1979-07-03 09:55:30.320 ,3,1,0.,12.0,0.,12.0,0.,12.0,0.,12.0
1979-07-03 09:55:42.320 ,0,1,0.,12.0,0.,12.0,0.,12.0,0.,12.0
1979-07-03 09:55:54.320 ,0,1,0.,12.0,0.,12.0,0.,12.0,0.,12.0
1979-07-03 09:56:06.320 ,4,1,0.,12.0,0.,12.0,0.,12.0,0.,12.0
1979-07-03 09:56:18.320 ,4,1,1.,12.0,0.,12.0,0.,12.0,0.,12.0
1979-07-03 09:56:30.320 ,7,1,0.,12.0,0.,12.0,0.,12.0,0.,12.0
1979-07-03 09:56:42.320 ,7,1,0.,12.0,0.,12.0,0.,12.0,0.,12.0
1979-07-03 09:56:54.320 ,3,1,0.,12.0,0.,12.0,0.,12.0,0.,12.0
1979-07-03 09:57:06.320 ,3,1,0.,12.0,0.,12.0,0.,12.0,0.,12.0
1979-07-03 09:57:18.320 ,0,1,0.,12.0,0.,12.0,0.,12.0,0.,12.0
1979-07-03 09:57:30.320 ,0,1,0.,12.0,0.,12.0,0.,12.0,0.,12.0
1979-07-03 09:57:42.320 ,4,1,0.,12.0,0.,12.0,0.,12.0,0.,12.0
1979-07-03 09:57:54.320 ,4,1,0.,12.0,0.,12.0,0.,12.0,0.,12.0
1979-07-03 09:58:06.320 ,7,1,0.,12.0,0.,12.0,0.,12.0,0.,12.0
1979-07-03 09:58:18.320 ,7,1,0.,12.0,0.,12.0,0.,12.0,0.,12.0
1979-07-03 09:58:30.320 ,3,1,0.,12.0,0.,12.0,0.,12.0,0.,12.0
1979-07-03 09:58:42.320 ,3,1,0.,12.0,0.,12.0,0.,12.0,0.,12.0
1979-07-03 09:58:54.320 ,0,1,0.,12.0,0.,12.0,0.,12.0,0.,12.0
1979-07-03 09:59:06.320 ,0,1,0.,12.0,0.,12.0,0.,12.0,0.,12.0
1979-07-03 09:59:18.320 ,4,1,0.,12.0,0.,12.0,0.,12.0,0.,12.0
1979-07-03 09:59:30.320 ,4,1,0.,12.0,0.,12.0,0.,12.0,0.,12.0
1979-07-03 09:59:42.320 ,7,1,0.,12.0,0.,12.0,0.,12.0,0.,12.0
1979-07-03 09:59:54.320 ,7,1,0.,12.0,0.,12.0,0.,12.0,0.,12.0
1979-07-03 10:00:06.320 ,3,1,0.,12.0,0.,12.0,0.,12.0,0.,12.0
1979-07-03 10:00:18.320 ,3,1,0.,12.0,0.,12.0,0.,12.0,0.,12.0
1979-07-03 10:00:30.330 ,0,1,0.,12.0,0.,12.0,0.,12.0,0.,12.0
1979-07-03 10:00:42.330 ,0,1,0.,12.0,0.,12.0,0.,12.0,0.,12.0
1979-07-03 10:00:54.330 ,4,1,0.,12.0,0.,12.0,0.,12.0,0.,12.0
1979-07-03 10:01:06.330 ,4,1,0.,12.0,0.,12.0,0.,12.0,0.,12.0
1979-07-03 10:01:18.330 ,7,1,0.,12.0,0.,12.0,0.,12.0,0.,12.0
1979-07-03 10:01:30.330 ,7,1,0.,12.0,0.,12.0,0.,12.0,0.,12.0
1979-07-03 10:01:42.320 ,3,1,0.,12.0,0.,12.0,0.,12.0,0.,12.0
1979-07-03 10:01:54.330 ,3,1,0.,12.0,0.,12.0,0.,12.0,0.,12.0
1979-07-03 10:02:06.320 ,0,1,0.,12.0,0.,12.0,0.,12.0,0.,12.0
1979-07-03 10:02:18.330 ,0,1,0.,12.0,1.,12.0,0.,12.0,0.,12.0
1979-07-03 10:02:30.320 ,4,1,0.,12.0,0.,12.0,0.,12.0,0.,12.0
1979-07-03 10:02:42.330 ,4,1,0.,12.0,0.,12.0,0.,12.0,0.,12.0
1979-07-03 10:02:54.320 ,7,1,0.,12.0,0.,12.0,0.,12.0,0.,12.0
1979-07-03 10:03:06.320 ,7,1,0.,12.0,0.,12.0,0.,12.0,0.,12.0
1979-07-03 10:03:18.320 ,3,1,0.,12.0,0.,12.0,0.,12.0,0.,12.0
1979-07-03 10:03:30.330 ,3,1,0.,12.0,0.,12.0,0.,12.0,0.,12.0
1979-07-03 10:03:42.320 ,0,1,0.,12.0,0.,12.0,0.,12.0,0.,12.0
1979-07-03 10:03:54.330 ,0,1,0.,12.0,0.,12.0,0.,12.0,0.,12.0
1979-07-03 10:04:06.320 ,4,1,0.,12.0,0.,12.0,0.,12.0,0.,12.0
1979-07-03 10:04:18.330 ,4,1,0.,12.0,0.,12.0,0.,12.0,0.,12.0
1979-07-03 10:04:30.330 ,7,1,0.,12.0,0.,12.0,0.,12.0,0.,12.0
1979-07-03 10:04:42.330 ,7,1,0.,12.0,0.,12.0,0.,12.0,0.,12.0
1979-07-03 10:04:54.330 ,3,1,0.,12.0,0.,12.0,0.,12.0,0.,12.0
1979-07-03 10:05:06.330 ,3,1,0.,12.0,0.,12.0,0.,12.0,0.,12.0
1979-07-03 10:05:18.330 ,0,1,0.,12.0,0.,12.0,0.,12.0,0.,12.0
1979-07-03 10:05:30.330 ,0,1,0.,12.0,0.,12.0,0.,12.0,0.,12.0
1979-07-03 10:05:42.330 ,0,0,0.,12.0,0.,12.0,0.,12.0,0.,12.0
1979-07-03 10:05:54.330 ,0,0,0.,12.0,0.,12.0,0.,12.0,0.,12.0
1979-07-03 10:06:06.330 ,0,0,0.,12.0,0.,12.0,0.,12.0,0.,12.0
1979-07-03 10:06:18.330 ,0,0,0.,12.0,0.,12.0,0.,12.0,0.,12.0
1979-07-03 10:06:30.330 ,5,0,0.,12.0,0.,12.0,0.,12.0,0.,12.0
1979-07-03 10:06:42.330 ,5,0,0.,12.0,0.,12.0,0.,12.0,0.,12.0
1979-07-03 10:06:54.330 ,5,0,0.,12.0,0.,12.0,0.,12.0,0.,12.0
1979-07-03 10:07:06.330 ,5,0,0.,12.0,0.,12.0,0.,12.0,0.,12.0
1979-07-03 10:07:18.330 ,4,0,0.,12.0,0.,12.0,0.,12.0,0.,12.0
1979-07-03 10:07:30.330 ,4,0,0.,12.0,0.,12.0,0.,12.0,0.,12.0
1979-07-03 10:07:42.330 ,4,0,0.,12.0,0.,12.0,0.,12.0,0.,12.0
1979-07-03 10:07:54.330 ,4,0,0.,12.0,0.,12.0,0.,12.0,0.,12.0
1979-07-03 10:08:06.330 ,3,0,0.,12.0,0.,12.0,0.,12.0,0.,12.0
1979-07-03 10:08:18.330 ,3,0,0.,12.0,0.,12.0,0.,12.0,0.,12.0
1979-07-03 10:08:30.330 ,3,0,0.,12.0,0.,12.0,0.,12.0,0.,12.0
1979-07-03 10:08:42.330 ,3,0,0.,12.0,0.,12.0,0.,12.0,0.,12.0
1979-07-03 10:08:54.330 ,2,0,0.,12.0,0.,12.0,0.,12.0,0.,12.0
1979-07-03 10:09:06.330 ,2,0,0.,12.0,0.,12.0,0.,12.0,0.,12.0
1979-07-03 10:09:18.330 ,2,0,0.,12.0,0.,12.0,0.,12.0,0.,12.0
1979-07-03 10:09:30.330 ,2,0,0.,12.0,0.,12.0,0.,12.0,0.,12.0
1979-07-03 10:09:42.330 ,1,0,0.,12.0,0.,12.0,0.,12.0,0.,12.0
1979-07-03 10:09:54.330 ,1,0,0.,12.0,0.,12.0,0.,12.0,0.,12.0
1979-07-03 10:10:06.330 ,1,0,0.,12.0,0.,12.0,0.,12.0,0.,12.0
1979-07-03 10:10:18.330 ,1,0,0.,12.0,0.,12.0,0.,12.0,0.,12.0
1979-07-03 10:10:30.320 ,0,0,0.,12.0,0.,12.0,0.,12.0,0.,12.0
1979-07-03 10:10:42.320 ,0,0,0.,12.0,0.,12.0,0.,12.0,0.,12.0
1979-07-03 10:10:54.320 ,0,0,0.,12.0,0.,12.0,0.,12.0,0.,12.0
1979-07-03 10:11:06.320 ,0,0,0.,12.0,0.,12.0,0.,12.0,0.,12.0
1979-07-03 10:11:18.320 ,0,0,0.,12.0,0.,12.0,0.,12.0,0.,12.0
1979-07-03 10:11:30.320 ,0,0,0.,12.0,0.,12.0,0.,12.0,0.,12.0
1979-07-03 10:11:42.320 ,0,0,0.,12.0,0.,12.0,0.,12.0,0.,12.0
1979-07-03 10:11:54.320 ,0,0,0.,12.0,0.,12.0,0.,12.0,0.,12.0
1979-07-03 10:12:06.320 ,1,0,0.,12.0,0.,12.0,0.,12.0,0.,12.0
1979-07-03 10:12:18.320 ,1,0,0.,12.0,0.,12.0,0.,12.0,0.,12.0
1979-07-03 10:12:30.320 ,1,0,0.,12.0,0.,12.0,0.,12.0,0.,12.0
1979-07-03 10:12:42.320 ,1,0,0.,12.0,0.,12.0,0.,12.0,0.,12.0
1979-07-03 10:12:54.320 ,2,0,0.,12.0,0.,12.0,0.,12.0,0.,12.0
1979-07-03 10:13:06.320 ,2,0,0.,12.0,0.,12.0,0.,12.0,0.,12.0
1979-07-03 10:13:18.320 ,2,0,0.,12.0,0.,12.0,0.,12.0,0.,12.0
1979-07-03 10:13:30.320 ,2,0,0.,12.0,0.,12.0,0.,12.0,0.,12.0
1979-07-03 10:13:42.320 ,3,0,0.,12.0,0.,12.0,0.,12.0,0.,12.0
1979-07-03 10:13:54.320 ,3,0,0.,12.0,0.,12.0,0.,12.0,0.,12.0
1979-07-03 10:14:06.320 ,3,0,0.,12.0,0.,12.0,0.,12.0,0.,12.0
1979-07-03 10:14:18.320 ,3,0,0.,12.0,0.,12.0,0.,12.0,0.,12.0
1979-07-03 10:14:30.320 ,4,0,0.,12.0,0.,12.0,0.,12.0,0.,12.0
1979-07-03 10:14:42.320 ,4,0,0.,12.0,0.,12.0,0.,12.0,0.,12.0
1979-07-03 10:14:54.320 ,4,0,0.,12.0,0.,12.0,0.,12.0,0.,12.0
1979-07-03 10:15:06.320 ,4,0,0.,12.0,0.,12.0,0.,12.0,0.,12.0
1979-07-03 10:15:18.320 ,5,0,0.,12.0,0.,12.0,0.,12.0,0.,12.0
1979-07-03 10:15:30.320 ,5,0,0.,12.0,0.,12.0,0.,12.0,0.,12.0
1979-07-03 10:15:42.320 ,5,0,0.,12.0,0.,12.0,0.,12.0,0.,12.0
1979-07-03 10:15:54.320 ,5,0,0.,12.0,0.,12.0,0.,12.0,0.,12.0
1979-07-03 10:16:06.320 ,6,0,0.,12.0,0.,12.0,0.,12.0,0.,12.0
1979-07-03 10:16:18.320 ,6,0,0.,12.0,0.,12.0,0.,12.0,0.,12.0
1979-07-03 10:16:30.320 ,6,0,0.,12.0,0.,12.0,0.,12.0,0.,12.0
1979-07-03 10:16:42.320 ,6,0,0.,12.0,0.,12.0,0.,12.0,0.,12.0
1979-07-03 10:16:54.320 ,7,0,0.,12.0,0.,12.0,0.,12.0,0.,12.0
1979-07-03 10:17:06.320 ,7,0,0.,12.0,0.,12.0,0.,12.0,0.,12.0
1979-07-03 10:17:18.320 ,7,0,0.,12.0,0.,12.0,0.,12.0,0.,12.0
1979-07-03 10:17:30.320 ,7,0,0.,12.0,0.,12.0,0.,12.0,0.,12.0